Retour au catalogue

STARLINK-5548

ActifCommunicationsSSO
NORAD 56334·PAYLOAD·🇺🇸 United States

Lancé Apr 27, 2023 depuis Vandenberg Space Force Base

Loading…

Prochains Passages (prochaines 24 heures)

TLE

FraisSource: CelesTrak SupGP

Époque: Sep 15, 2026, 02:22 UTC

1 56334C 23058T   26258.09909722 -.00055653  00000+0 -17278-2 0  2580
2 56334  97.2844 254.8679 0001642  89.7918 249.9403 15.33463292    13

Suivez STARLINK-5548 en temps réel avec AllMySat

Download on the App Store